Regional Weather Roundup
Issued by NWS

Home | Current Version | Previous Version | Text Only | Print | Product List | Glossary Off
Versions: 1 2 3 4 5 6 7 8 9 10 11 12 13 14 15 16 17 18 19 20 21 22 23 24 25 26 27 28 29 30 31 32 33 34 35 36 37 38 39 40 41 42 43 44 45 46 47 48 49 50

000
ASUS44 KMEG 260810
RWRTN
TENNESSEE HOURLY STATE WEATHER ROUNDUP
NATIONAL WEATHER SERVICE MEMPHIS TN
300 AM CDT MON JUN 26 2017

TNZ002-004-019-021-049-052-054-088>092-260900-
WEST TENNESSEE

CITY           SKY/WX    TMP DP  RH WIND       PRES   REMARKS
MEMPHIS INTL   CLOUDY    67  59  75 SW3       30.16F
NWS MEMPHIS      N/A     63 N/A N/A MISG        N/A
JACKSON        PTCLDY    62  58  86 CALM      30.17S
SOMERVILLE     CLEAR     61  59  94 CALM      30.16S
COVINGTON      CLEAR     66  63  88 CALM      30.17S
UNION CITY     CLEAR     64  61  88 CALM      30.16S
BOLIVAR        CLEAR     57  57 100 CALM      30.17S
PARIS          CLEAR     63  57  82 CALM      30.16S
HUNTINGDON     PTCLDY    63  59  88 CALM      30.15F
LEXINGTON      CLEAR     57  57 100 CALM      30.17S
SELMER         CLEAR     57  55  94 SW5       30.17S
SAVANNAH       CLEAR     57  57 100 CALM      30.17R
$$

TNZ008-025-027-028-033-062-065-066-260900-
NORTH MIDDLE TENNESSEE

CITY           SKY/WX    TMP DP  RH WIND       PRES   REMARKS
NASHVILLE      PTCLDY    62  57  83 S3        30.16F
PORTLAND       PTCLDY    57  57 100 CALM      30.16R
CLARKSVILLE    CLOUDY    64  56  75 W3        30.16R
SMYRNA         PTCLDY    59  57  93 CALM      30.17F
COOKEVILLE     CLEAR     54  54 100 CALM      30.17S
GALLATIN       CLEAR     59  57  94 CALM      30.18S
CROSSVILLE     CLEAR     52  50  93 CALM      30.20F
$$

TNZ061-075-076-078-094-096-097-260900-
SOUTH MIDDLE TENNESSEE

CITY           SKY/WX    TMP DP  RH WIND       PRES   REMARKS
FAYETTEVILLE   CLEAR     59  57  94 CALM      30.18R
TULLAHOMA      CLEAR     54  52  94 CALM      30.19S
WINCHESTER     CLEAR     55  54  94 CALM        N/A
MCMINNVILLE    CLEAR     55  55 100 CALM      30.18S
COLUMBIA       CLEAR     57  57 100 CALM      30.16R
SHELBYVILLE    CLEAR     55  55 100 E5        30.17S
$$

TNZ017-018-042-046-047-260900-
NORTHEAST TENNESSEE

CITY           SKY/WX    TMP DP  RH WIND       PRES   REMARKS
TRI CITIES     PTCLDY    53  51  93 CALM      30.18F
ELIZABETHTON   MOCLDY    54  50  87 CALM      30.20S
$$

TNZ012-013-036-069-073-074-260900-
CENTRAL EAST TENNESSEE

CITY           SKY/WX    TMP DP  RH WIND       PRES   REMARKS
KNOXVILLE      PTCLDY    59  53  80 CALM      30.16F
OAK RIDGE      CLEAR     56  53  90 CALM      30.18F
DOWNTOWN KNOXV   N/A     57  57 100 CALM      30.16F
GATLINBURG     CLEAR     54  52  94 CALM      30.17F
MORRISTOWN     PTCLDY    57  52  82 CALM      30.17S
JACKSBORO        N/A     54  54 100 CALM      30.21S
$$

TNZ083-085-099-260900-
SOUTHEAST TENNESSEE

CITY           SKY/WX    TMP DP  RH WIND       PRES   REMARKS
CHATTANOOGA    CLEAR     58  55  90 CALM      30.18S
$$

SKY/WX REPORTED AS FAIR MEANS FEW OR NO CLOUDS BELOW
12 THOUSAND FEET.




USA.gov is the U.S. government's official web portal to all federal, state and local government web resources and services.